This demonstration page uses our WeatherBlox Daily Observations layout. Learn more.

Left ArrowRight Arrow

Hourly Observations for March 31, 2019

Temp ( °F °C ) Dew Point ( °F °C ) Humidity (%) Winds ( mph kmh ) Pressure ( in mb ) Visibility ( mi km ) Precip ( " mm )
12:51 am 00:51 Clear 55 12.8 24 -4.4 30 30 E 8 13 29.97 1015 10 16 N/A
1:51 am 01:51 Clear 54 12.2 24 -4.4 31 31 E 10 17 29.97 1015 10 16 N/A
2:51 am 02:51 Clear 53 11.7 25 -3.9 34 34 ESE 15 24 29.96 1015 10 16 N/A
3:51 am 03:51 Clear 52 11.1 25 -3.9 35 35 ESE 13 20 29.96 1015 10 16 N/A
4:51 am 04:51 Clear 48 8.9 25 -3.9 41 41 SE 7 11 29.98 1015 10 16 N/A
5:51 am 05:51 Clear 48 8.9 25 -3.9 41 41 SE 8 13 30.02 1017 10 16 N/A
6:51 am 06:51 Sunny 51 10.6 25 -3.9 36 36 ESE 15 24 30.05 1018 10 16 N/A
7:51 am 07:51 Sunny 53 11.7 25 -3.9 34 34 SE 16 26 30.06 1018 10 16 N/A
8:51 am 08:51 Sunny 56 13.3 25 -3.9 30 30 ESE 17 28 30.06 1018 10 16 N/A
9:51 am 09:51 Sunny 59 15 25 -3.9 27 27 SE 15 24 30.05 1018 10 16 N/A
10:51 am 10:51 Sunny 61 16.1 25 -3.9 25 25 SE 12 19 30.03 1017 10 16 N/A
11:51 am 11:51 Sunny 64 17.8 25 -3.9 23 23 SSE 10 17 29.98 1015 10 16 N/A
12:51 pm 12:51 Sunny 66 18.9 25 -3.9 21 21 S 5 7 29.95 1014 10 16 N/A
1:51 pm 13:51 Sunny 67 19.4 24 -4.4 20 20 WSW 7 11 29.92 1013 10 16 N/A
2:51 pm 14:51 Sunny 69 20.6 24 -4.4 18 18 S 6 9 29.88 1012 10 16 N/A
3:51 pm 15:51 Sunny 71 21.7 24 -4.4 17 17 W 10 17 29.86 1011 10 16 N/A
4:51 pm 16:51 Sunny 72 22.2 23 -5 16 16 W 12 19 29.85 1011 10 16 N/A
5:51 pm 17:51 Sunny 70 21.1 24 -4.4 18 18 W 13 20 29.86 1011 10 16 N/A
6:51 pm 18:51 Clear 66 18.9 25 -3.9 21 21 WNW 8 13 29.88 1012 10 16 N/A
7:51 pm 19:51 Clear 59 15 24 -4.4 26 26 NW 6 9 29.92 1013 10 16 N/A
8:51 pm 20:51 Clear 59 15 23 -5 25 25 WNW 6 9 29.94 1014 10 16 N/A
9:51 pm 21:51 Clear 63 17.2 8 -13.3 11 11 NNE 15 24 29.94 1014 10 16 N/A
10:51 pm 22:51 Clear 62 16.7 7 -13.9 11 11 NE 15 24 29.96 1014 10 16 N/A
11:51 pm 23:51 Clear 63 17.2 8 -13.3 11 11 VRB 5 7 29.97 1015 10 16 N/A

Powered by AerisWeather